Location: Beuerbach
(48.1459°N, 10.9174°E)
Time: 00:56:52
(UTC+00:00)

Meteor 1-21 - Pass Details

Date: 06 August 2024
Orbit: 845 x 885 km, 81.2° (Epoch: 09 September)

Event Time Altitude Azimuth Distance (km) Brightness Sun altitude
Rises 02:44:55 0° 332° (NNW) 3,417 7.5 -11.1°
Reaches altitude 10° 02:48:31 10° 309° (NW) 2,476 6.5 -10.7°
Maximum altitude 02:51:18 14° 279° (W) 2,192 6.0 -10.3°
Enters shadow 02:53:47 11° 251° (WSW) 2,419 6.0 -10.0°
